| time (UTC) | temp C | wind direction | speed KPH | gust KPH | rain 1hr cm | rain 24hr cm | rain mn cm | humidity % | barometer mb |
| 20260507074718 | 11 | 118 | 1.6 | 11.3 | 0.00 | 0.00 | 0.00 | 82 | 1016.5 |
| 20260507073603 | 11 | 116 | 0.0 | 4.8 | 0.00 | 0.00 | 0.00 | 83 | 1016.5 |
| 20260507072703 | 10 | 125 | 0.0 | 3.2 | 0.00 | 0.00 | 0.00 | 84 | 1016.4 |
| 20260507072018 | 10 | 125 | 0.0 | 3.2 | 0.00 | 0.00 | 0.00 | 85 | 1016.4 |
| 20260507070905 | 9 | 105 | 1.6 | 4.8 | 0.00 | 0.00 | 0.00 | 86 | 1016.5 |
| 20260507070009 | 9 | 21 | 0.0 | 3.2 | 0.00 | 0.00 | 0.00 | 88 | 1016.5 |
| 20260507065405 | 8 | 0 | 0.0 | 0.0 | 0.00 | 0.00 | 0.00 | 89 | 1016.5 |
| 20260507064505 | 8 | 0 | 0.0 | 0.0 | 0.00 | 0.00 | 0.00 | 91 | 1016.4 |
| 20260507063603 | 7 | 16 | 0.0 | 1.6 | 0.00 | 0.00 | 0.00 | 92 | 1016.5 |
| 20260507062705 | 6 | 16 | 0.0 | 3.2 | 0.00 | 0.00 | 0.00 | 92 | 1016.5 |
| 20260507061803 | 6 | 11 | 1.6 | 4.8 | 0.00 | 0.00 | 0.00 | 92 | 1016.4 |
| 20260507061117 | 6 | 10 | 0.0 | 3.2 | 0.00 | 0.00 | 0.00 | 92 | 1016.4 |
| 20260507060004 | 6 | 11 | 1.6 | 6.4 | 0.00 | 0.00 | 0.00 | 92 | 1016.3 |
| 20260507055403 | 6 | 13 | 0.0 | 3.2 | 0.00 | 0.00 | 0.00 | 93 | 1016.3 |
| 20260507054503 | 6 | 11 | 0.0 | 6.4 | 0.00 | 0.00 | 0.00 | 93 | 1016.2 |
| 20260507053605 | 5 | 7 | 0.0 | 4.8 | 0.00 | 0.00 | 0.00 | 93 | 1016.1 |
| 20260507052703 | 5 | 0 | 0.0 | 0.0 | 0.00 | 0.00 | 0.00 | 93 | 1016.1 |
| 20260507051804 | 5 | 9 | 0.0 | 1.6 | 0.00 | 0.00 | 0.00 | 93 | 1016.1 |
| 20260507051119 | 5 | 0 | 0.0 | 0.0 | 0.00 | 0.00 | 0.00 | 93 | 1016.0 |
| 20260507050005 | 5 | 0 | 0.0 | 0.0 | 0.00 | 0.00 | 0.00 | 92 | 1015.9 |
| 20260507045405 | 5 | 9 | 0.0 | 3.2 | 0.00 | 0.00 | 0.00 | 92 | 1015.9 |
| 20260507044719 | 4 | 9 | 1.6 | 4.8 | 0.00 | 0.00 | 0.00 | 92 | 1015.8 |
| 20260507043603 | 4 | 3 | 1.6 | 4.8 | 0.00 | 0.00 | 0.00 | 92 | 1015.8 |
| 20260507042705 | 4 | 9 | 1.6 | 6.4 | 0.00 | 0.00 | 0.00 | 92 | 1015.8 |
| 20260507041803 | 4 | 360 | 1.6 | 4.8 | 0.00 | 0.00 | 0.00 | 92 | 1015.8 |
| 20260507041119 | 4 | 360 | 0.0 | 4.8 | 0.00 | 0.00 | 0.00 | 92 | 1015.9 |
| 20260507040003 | 4 | 359 | 1.6 | 4.8 | 0.00 | 0.00 | 0.00 | 91 | 1015.9 |
| 20260507035404 | 4 | 356 | 1.6 | 6.4 | 0.00 | 0.00 | 0.00 | 91 | 1015.8 |
| 20260507034508 | 5 | 355 | 0.0 | 4.8 | 0.00 | 0.00 | 0.00 | 91 | 1015.8 |
| 20260507033605 | 5 | 355 | 0.0 | 3.2 | 0.00 | 0.00 | 0.00 | 91 | 1015.8 |
| 20260507032705 | 5 | 3 | 0.0 | 4.8 | 0.00 | 0.00 | 0.00 | 91 | 1015.7 |
| 20260507031805 | 5 | 20 | 1.6 | 4.8 | 0.00 | 0.00 | 0.00 | 92 | 1015.7 |
| 20260507030905 | 5 | 20 | 1.6 | 4.8 | 0.00 | 0.00 | 0.00 | 92 | 1015.8 |
| 20260507030005 | 5 | 20 | 1.6 | 4.8 | 0.00 | 0.00 | 0.00 | 92 | 1015.8 |
| 20260507025619 | 5 | 18 | 1.6 | 4.8 | 0.00 | 0.00 | 0.00 | 92 | 1015.8 |
| 20260507024503 | 5 | 6 | 3.2 | 6.4 | 0.00 | 0.00 | 0.00 | 92 | 1015.7 |
| 20260507023818 | 5 | 8 | 1.6 | 6.4 | 0.00 | 0.00 | 0.00 | 92 | 1015.7 |
| 20260507022703 | 5 | 10 | 0.0 | 1.6 | 0.00 | 0.00 | 0.00 | 92 | 1015.8 |
| 20260507021805 | 5 | 12 | 1.6 | 4.8 | 0.00 | 0.00 | 0.00 | 92 | 1015.8 |
| 20260507020904 | 5 | 3 | 1.6 | 4.8 | 0.00 | 0.00 | 0.00 | 92 | 1015.8 |
| 20260507020004 | 5 | 5 | 1.6 | 4.8 | 0.00 | 0.00 | 0.00 | 91 | 1015.7 |
| 20260507015409 | 4 | 5 | 1.6 | 4.8 | 0.00 | 0.00 | 0.00 | 91 | 1015.7 |
| 20260507014503 | 4 | 5 | 0.0 | 4.8 | 0.00 | 0.00 | 0.00 | 91 | 1015.6 |
| 20260507013603 | 4 | 5 | 1.6 | 4.8 | 0.00 | 0.00 | 0.00 | 91 | 1015.6 |
| 20260507012706 | 5 | 5 | 1.6 | 4.8 | 0.00 | 0.00 | 0.00 | 91 | 1015.7 |
| 20260507011804 | 5 | 5 | 0.0 | 4.8 | 0.00 | 0.00 | 0.00 | 91 | 1015.7 |
| 20260507010903 | 5 | 5 | 0.0 | 3.2 | 0.00 | 0.00 | 0.00 | 90 | 1015.7 |
| 20260507010003 | 5 | 5 | 1.6 | 4.8 | 0.00 | 0.00 | 0.00 | 91 | 1015.6 |
| 20260507005616 | 5 | 4 | 1.6 | 4.8 | 0.00 | 0.00 | 0.00 | 91 | 1015.6 |
| 20260507004503 | 5 | 359 | 1.6 | 4.8 | 0.00 | 0.00 | 0.00 | 90 | 1015.5 |
| 20260507003603 | 5 | 359 | 3.2 | 6.4 | 0.00 | 0.00 | 0.00 | 90 | 1015.6 |
| 20260507002703 | 5 | 5 | 0.0 | 3.2 | 0.00 | 0.00 | 0.00 | 90 | 1015.6 |
| 20260507001804 | 5 | 0 | 0.0 | 0.0 | 0.00 | 0.00 | 0.00 | 89 | 1015.6 |
| 20260507001117 | 5 | 0 | 0.0 | 0.0 | 0.00 | 0.00 | 0.00 | 89 | 1015.7 |
| 20260507000003 | 5 | 0 | 0.0 | 0.0 | 0.00 | 0.00 | 0.00 | 88 | 1015.7 |
| 20260506235403 | 5 | 5 | 0.0 | 1.6 | 0.00 | 0.00 | 0.00 | 88 | 1015.6 |
| 20260506234505 | 6 | 15 | 0.0 | 1.6 | 0.00 | 0.00 | 0.00 | 88 | 1015.5 |
| 20260506233605 | 6 | 15 | 0.0 | 3.2 | 0.00 | 0.00 | 0.00 | 88 | 1015.5 |
| 20260506232703 | 6 | 14 | 1.6 | 4.8 | 0.00 | 0.00 | 0.00 | 88 | 1015.5 |
| 20260506231803 | 6 | 11 | 0.0 | 3.2 | 0.00 | 0.00 | 0.00 | 88 | 1015.6 |
| 20260506230905 | 6 | 5 | 0.0 | 3.2 | 0.00 | 0.00 | 0.00 | 87 | 1015.6 |
| 20260506230003 | 6 | 2 | 1.6 | 6.4 | 0.00 | 0.00 | 0.00 | 87 | 1015.6 |
| 20260506225618 | 6 | 357 | 1.6 | 6.4 | 0.00 | 0.00 | 0.00 | 87 | 1015.6 |
| 20260506224505 | 7 | 355 | 0.0 | 3.2 | 0.00 | 0.00 | 0.00 | 86 | 1015.6 |
| 20260506223605 | 7 | 355 | 0.0 | 3.2 | 0.00 | 0.00 | 0.00 | 86 | 1015.5 |
| 20260506222704 | 7 | 16 | 0.0 | 4.8 | 0.00 | 0.00 | 0.00 | 85 | 1015.5 |
| 20260506221805 | 7 | 18 | 0.0 | 4.8 | 0.00 | 0.00 | 0.00 | 84 | 1015.4 |
| 20260506221118 | 7 | 5 | 0.0 | 1.6 | 0.00 | 0.00 | 0.00 | 84 | 1015.4 |
| 20260506220218 | 7 | 17 | 0.0 | 3.2 | 0.00 | 0.00 | 0.00 | 83 | 1015.4 |
| 20260506215405 | 8 | 29 | 0.0 | 4.8 | 0.00 | 0.00 | 0.00 | 83 | 1015.3 |
| 20260506214505 | 8 | 30 | 1.6 | 6.4 | 0.00 | 0.00 | 0.00 | 82 | 1015.3 |
| 20260506213603 | 8 | 28 | 0.0 | 6.4 | 0.00 | 0.00 | 0.00 | 81 | 1015.3 |
| 20260506212703 | 8 | 32 | 1.6 | 6.4 | 0.00 | 0.00 | 0.00 | 80 | 1015.3 |
| 20260506211803 | 8 | 20 | 0.0 | 4.8 | 0.00 | 0.00 | 0.00 | 80 | 1015.3 |
| 20260506210904 | 9 | 19 | 1.6 | 6.4 | 0.00 | 0.00 | 0.00 | 79 | 1015.3 |
| 20260506210006 | 9 | 25 | 1.6 | 9.7 | 0.00 | 0.00 | 0.00 | 78 | 1015.1 |
| 20260506205620 | 9 | 28 | 1.6 | 9.7 | 0.00 | 0.00 | 0.00 | 77 | 1015.1 |
| 20260506204503 | 9 | 9 | 3.2 | 14.5 | 0.00 | 0.00 | 0.00 | 76 | 1015.0 |
| 20260506203603 | 10 | 21 | 1.6 | 8.0 | 0.00 | 0.00 | 0.00 | 76 | 1014.9 |
| 20260506202705 | 10 | 13 | 1.6 | 8.0 | 0.00 | 0.00 | 0.00 | 75 | 1014.8 |
| 20260506201803 | 10 | 1 | 4.8 | 12.9 | 0.00 | 0.00 | 0.00 | 74 | 1014.8 |
| 20260506200903 | 10 | 6 | 4.8 | 17.7 | 0.00 | 0.00 | 0.00 | 73 | 1014.7 |
| 20260506200005 | 10 | 9 | 6.4 | 17.7 | 0.00 | 0.00 | 0.00 | 73 | 1014.7 |
| 20260506195405 | 10 | 8 | 4.8 | 17.7 | 0.00 | 0.00 | 0.00 | 72 | 1014.6 |
| 20260506194503 | 10 | 5 | 3.2 | 12.9 | 0.00 | 0.00 | 0.00 | 71 | 1014.4 |
| 20260506193603 | 11 | 358 | 3.2 | 12.9 | 0.00 | 0.00 | 0.00 | 69 | 1014.4 |
| 20260506192917 | 11 | 42 | 1.6 | 6.4 | 0.00 | 0.00 | 0.00 | 68 | 1014.3 |
| 20260506191804 | 11 | 4 | 1.6 | 8.0 | 0.00 | 0.00 | 0.00 | 67 | 1014.3 |
| 20260506190904 | 11 | 351 | 1.6 | 6.4 | 0.00 | 0.00 | 0.00 | 65 | 1014.2 |
| 20260506190004 | 11 | 359 | 3.2 | 11.3 | 0.00 | 0.00 | 0.00 | 64 | 1014.1 |
| 20260506185404 | 11 | 340 | 3.2 | 16.1 | 0.00 | 0.00 | 0.00 | 64 | 1014.2 |
| 20260506184505 | 11 | 340 | 3.2 | 16.1 | 0.00 | 0.00 | 0.00 | 64 | 1014.1 |
| 20260506183604 | 11 | 331 | 3.2 | 9.7 | 0.00 | 0.00 | 0.00 | 63 | 1014.0 |
| 20260506182704 | 11 | 340 | 1.6 | 6.4 | 0.00 | 0.00 | 0.00 | 63 | 1013.9 |
| 20260506181806 | 11 | 343 | 3.2 | 8.0 | 0.00 | 0.00 | 0.00 | 62 | 1013.9 |
| 20260506180903 | 11 | 325 | 3.2 | 9.7 | 0.00 | 0.00 | 0.00 | 63 | 1013.8 |
| 20260506180218 | 11 | 330 | 3.2 | 11.3 | 0.00 | 0.00 | 0.00 | 63 | 1013.7 |
| 20260506175404 | 12 | 352 | 3.2 | 11.3 | 0.00 | 0.00 | 0.00 | 63 | 1013.5 |
| 20260506174720 | 12 | 334 | 4.8 | 12.9 | 0.00 | 0.00 | 0.00 | 61 | 1013.5 |
| 20260506173603 | 12 | 357 | 4.8 | 16.1 | 0.00 | 0.00 | 0.00 | 62 | 1013.5 |
| 20260506172703 | 12 | 345 | 4.8 | 16.1 | 0.00 | 0.00 | 0.00 | 61 | 1013.3 |
| 20260506171803 | 12 | 342 | 4.8 | 14.5 | 0.00 | 0.00 | 0.00 | 60 | 1013.3 |
| 20260506170903 | 12 | 11 | 4.8 | 14.5 | 0.00 | 0.00 | 0.00 | 59 | 1013.3 |
| 20260506170005 | 12 | 11 | 4.8 | 16.1 | 0.00 | 0.00 | 0.00 | 59 | 1013.3 |
| 20260506165404 | 13 | 7 | 4.8 | 16.1 | 0.00 | 0.00 | 0.00 | 59 | 1013.4 |
| 20260506164505 | 12 | 359 | 4.8 | 16.1 | 0.00 | 0.00 | 0.00 | 60 | 1013.3 |
| 20260506163605 | 12 | 11 | 4.8 | 17.7 | 0.00 | 0.00 | 0.00 | 59 | 1013.3 |
| 20260506162703 | 13 | 16 | 4.8 | 14.5 | 0.00 | 0.00 | 0.00 | 58 | 1013.3 |
| 20260506161805 | 13 | 352 | 6.4 | 19.3 | 0.00 | 0.00 | 0.00 | 58 | 1013.4 |
| 20260506160906 | 13 | 350 | 4.8 | 19.3 | 0.00 | 0.00 | 0.00 | 57 | 1013.3 |
| 20260506160221 | 13 | 10 | 6.4 | 20.9 | 0.00 | 0.00 | 0.00 | 57 | 1013.5 |
| 20260506155405 | 14 | 15 | 4.8 | 19.3 | 0.00 | 0.00 | 0.00 | 56 | 1013.4 |
| 20260506154505 | 14 | 4 | 6.4 | 17.7 | 0.00 | 0.00 | 0.00 | 58 | 1013.5 |
| 20260506153603 | 15 | 11 | 8.0 | 19.3 | 0.00 | 0.00 | 0.00 | 57 | 1013.5 |
| 20260506152704 | 14 | 11 | 4.8 | 19.3 | 0.00 | 0.00 | 0.00 | 58 | 1013.5 |
| 20260506151803 | 14 | 11 | 3.2 | 16.1 | 0.00 | 0.00 | 0.00 | 58 | 1013.5 |
| 20260506150903 | 14 | 15 | 6.4 | 19.3 | 0.00 | 0.00 | 0.00 | 59 | 1013.6 |
| 20260506150005 | 13 | 8 | 6.4 | 22.5 | 0.00 | 0.00 | 0.00 | 59 | 1013.6 |
| 20260506145620 | 13 | 9 | 8.0 | 22.5 | 0.00 | 0.00 | 0.00 | 59 | 1013.7 |
| 20260506144503 | 13 | 9 | 4.8 | 14.5 | 0.00 | 0.00 | 0.00 | 61 | 1013.6 |
| 20260506143603 | 13 | 4 | 6.4 | 17.7 | 0.00 | 0.00 | 0.00 | 61 | 1013.5 |
| 20260506142916 | 13 | 5 | 8.0 | 19.3 | 0.00 | 0.00 | 0.00 | 60 | 1013.5 |
| 20260506141803 | 13 | 23 | 4.8 | 22.5 | 0.00 | 0.00 | 0.00 | 60 | 1013.7 |
| 20260506140903 | 13 | 341 | 8.0 | 19.3 | 0.00 | 0.00 | 0.00 | 61 | 1013.6 |
| 20260506140005 | 13 | 351 | 6.4 | 16.1 | 0.00 | 0.00 | 0.00 | 60 | 1013.6 |
| 20260506135403 | 13 | 14 | 4.8 | 16.1 | 0.00 | 0.00 | 0.00 | 61 | 1013.7 |
| 20260506134718 | 13 | 14 | 6.4 | 20.9 | 0.00 | 0.00 | 0.00 | 59 | 1013.6 |
| 20260506133605 | 14 | 6 | 4.8 | 16.1 | 0.00 | 0.00 | 0.00 | 58 | 1013.6 |
| 20260506132705 | 13 | 355 | 6.4 | 20.9 | 0.00 | 0.00 | 0.00 | 58 | 1013.6 |
| 20260506131803 | 13 | 10 | 4.8 | 16.1 | 0.00 | 0.00 | 0.00 | 59 | 1013.7 |
| 20260506130903 | 13 | 9 | 6.4 | 20.9 | 0.00 | 0.00 | 0.00 | 60 | 1013.7 |
| 20260506130003 | 13 | 7 | 8.0 | 20.9 | 0.00 | 0.00 | 0.00 | 59 | 1013.8 |
| 20260506125403 | 13 | 10 | 8.0 | 19.3 | 0.00 | 0.00 | 0.00 | 59 | 1013.8 |
| 20260506124504 | 14 | 16 | 6.4 | 19.3 | 0.00 | 0.00 | 0.00 | 58 | 1013.8 |
| 20260506123603 | 15 | 13 | 6.4 | 20.9 | 0.00 | 0.00 | 0.00 | 57 | 1013.8 |
| 20260506122705 | 15 | 7 | 8.0 | 24.1 | 0.00 | 0.00 | 0.00 | 58 | 1013.8 |
| 20260506121806 | 15 | 7 | 6.4 | 19.3 | 0.00 | 0.00 | 0.00 | 56 | 1013.7 |
| 20260506120903 | 15 | 9 | 6.4 | 17.7 | 0.00 | 0.00 | 0.00 | 56 | 1013.7 |
| 20260506120003 | 14 | 1 | 6.4 | 20.9 | 0.00 | 0.00 | 0.00 | 56 | 1013.7 |
| 20260506115404 | 13 | 6 | 6.4 | 20.9 | 0.00 | 0.00 | 0.00 | 57 | 1013.7 |
| 20260506114717 | 14 | 360 | 4.8 | 20.9 | 0.00 | 0.00 | 0.00 | 56 | 1013.7 |
| 20260506113604 | 14 | 4 | 9.7 | 29.0 | 0.00 | 0.00 | 0.00 | 55 | 1013.8 |
| 20260506112703 | 14 | 6 | 6.4 | 19.3 | 0.00 | 0.00 | 0.00 | 54 | 1013.8 |
| 20260506111803 | 14 | 356 | 6.4 | 20.9 | 0.00 | 0.00 | 0.00 | 54 | 1013.9 |
| 20260506110905 | 14 | 353 | 8.0 | 24.1 | 0.00 | 0.00 | 0.00 | 54 | 1013.8 |
| 20260506110005 | 13 | 357 | 8.0 | 24.1 | 0.00 | 0.00 | 0.00 | 54 | 1013.8 |
| 20260506105403 | 13 | 351 | 6.4 | 20.9 | 0.00 | 0.00 | 0.00 | 55 | 1013.9 |
| 20260506104505 | 13 | 343 | 6.4 | 19.3 | 0.00 | 0.00 | 0.00 | 59 | 1013.8 |
| 20260506103603 | 13 | 1 | 8.0 | 22.5 | 0.00 | 0.00 | 0.00 | 57 | 1013.8 |
| 20260506102705 | 13 | 348 | 6.4 | 19.3 | 0.00 | 0.00 | 0.00 | 59 | 1013.8 |
| 20260506101805 | 13 | 359 | 6.4 | 17.7 | 0.00 | 0.00 | 0.00 | 59 | 1013.8 |
| 20260506100903 | 13 | 7 | 8.0 | 17.7 | 0.00 | 0.00 | 0.00 | 60 | 1013.8 |
| 20260506100004 | 12 | 10 | 8.0 | 25.7 | 0.00 | 0.00 | 0.00 | 62 | 1013.8 |
| 20260506095622 | 12 | 6 | 8.0 | 25.7 | 0.00 | 0.00 | 0.00 | 62 | 1013.7 |
| 20260506094503 | 12 | 358 | 8.0 | 27.4 | 0.00 | 0.00 | 0.00 | 61 | 1013.7 |
| 20260506093605 | 12 | 357 | 8.0 | 24.1 | 0.00 | 0.00 | 0.00 | 64 | 1013.7 |
| 20260506092917 | 12 | 5 | 4.8 | 24.1 | 0.00 | 0.00 | 0.00 | 67 | 1013.7 |
| 20260506091805 | 11 | 5 | 6.4 | 16.1 | 0.00 | 0.00 | 0.00 | 72 | 1013.7 |
| 20260506090905 | 10 | 351 | 6.4 | 16.1 | 0.00 | 0.00 | 0.00 | 72 | 1013.8 |
| 20260506090005 | 10 | 3 | 3.2 | 14.5 | 0.00 | 0.00 | 0.00 | 74 | 1013.8 |
| 20260506085405 | 9 | 360 | 6.4 | 16.1 | 0.00 | 0.00 | 0.00 | 74 | 1013.8 |
| 20260506084505 | 9 | 345 | 4.8 | 16.1 | 0.00 | 0.00 | 0.00 | 75 | 1013.8 |
| 20260506083819 | 9 | 358 | 8.0 | 22.5 | 0.00 | 0.00 | 0.00 | 74 | 1013.8 |
| 20260506082706 | 8 | 1 | 6.4 | 19.3 | 0.00 | 0.00 | 0.00 | 76 | 1013.7 |
| 20260506081806 | 8 | 357 | 8.0 | 19.3 | 0.00 | 0.00 | 0.00 | 77 | 1013.8 |